owner,sensor,date,latitude,longitude,vertical_datum,sea_water_practical_salinity,qcFlag 
WAVCIS,ioos:station:WAVCIS:CSI16:2,2011-01-01T00:00:00Z,29.4012,-89.0355,1.0,33.957,11111222 
WAVCIS,ioos:station:WAVCIS:CSI16:2,2011-01-01T00:15:00Z,29.4012,-89.0355,1.0,34.025,11111222 
WAVCIS,ioos:station:WAVCIS:CSI16:2,2011-01-01T00:30:00Z,29.4012,-89.0355,1.0,34.03,11111222 
WAVCIS,ioos:station:WAVCIS:CSI16:2,2011-01-01T00:45:00Z,29.4012,-89.0355,1.0,34.029,11111222 
WAVCIS,ioos:station:WAVCIS:CSI16:2,2011-01-01T01:00:00Z,29.4012,-89.0355,1.0,34.018,11111222 
WAVCIS,ioos:station:WAVCIS:CSI16:2,2011-01-01T01:15:00Z,29.4012,-89.0355,1.0,34.011,11111222 
WAVCIS,ioos:station:WAVCIS:CSI16:2,2011-01-01T01:30:00Z,29.4012,-89.0355,1.0,34.013,11111222 
WAVCIS,ioos:station:WAVCIS:CSI16:2,2011-01-01T01:45:00Z,29.4012,-89.0355,1.0,34.008,11111222 
WAVCIS,ioos:station:WAVCIS:CSI16:2,2011-01-01T02:00:00Z,29.4012,-89.0355,1.0,34.012,11111222 
WAVCIS,ioos:station:WAVCIS:CSI16:2,2011-01-01T02:15:00Z,29.4012,-89.0355,1.0,34.004,11111222 
WAVCIS,ioos:station:WAVCIS:CSI16:2,2011-01-01T02:30:00Z,29.4012,-89.0355,1.0,33.987,11111222 
WAVCIS,ioos:station:WAVCIS:CSI16:2,2011-01-01T02:45:00Z,29.4012,-89.0355,1.0,34.002,11111222 
WAVCIS,ioos:station:WAVCIS:CSI16:2,2011-01-01T03:00:00Z,29.4012,-89.0355,1.0,33.989,11111222 
WAVCIS,ioos:station:WAVCIS:CSI16:2,2011-01-01T03:15:00Z,29.4012,-89.0355,1.0,33.998,11111222 
WAVCIS,ioos:station:WAVCIS:CSI16:2,2011-01-01T03:30:00Z,29.4012,-89.0355,1.0,33.99,11111222 
WAVCIS,ioos:station:WAVCIS:CSI16:2,2011-01-01T03:45:00Z,29.4012,-89.0355,1.0,33.986,11111222 
WAVCIS,ioos:station:WAVCIS:CSI16:2,2011-01-01T04:00:00Z,29.4012,-89.0355,1.0,33.987,11111222 
WAVCIS,ioos:station:WAVCIS:CSI16:2,2011-01-01T04:15:00Z,29.4012,-89.0355,1.0,33.976,11111222 
WAVCIS,ioos:station:WAVCIS:CSI16:2,2011-01-01T04:30:00Z,29.4012,-89.0355,1.0,33.956,11111222 
WAVCIS,ioos:station:WAVCIS:CSI16:2,2011-01-01T04:45:00Z,29.4012,-89.0355,1.0,33.953,11111222 
WAVCIS,ioos:station:WAVCIS:CSI16:2,2011-01-01T05:00:00Z,29.4012,-89.0355,1.0,33.943,11111222 
WAVCIS,ioos:station:WAVCIS:CSI16:2,2011-01-01T05:15:00Z,29.4012,-89.0355,1.0,33.873,11111222 
WAVCIS,ioos:station:WAVCIS:CSI16:2,2011-01-01T05:30:00Z,29.4012,-89.0355,1.0,33.864,11111222 
WAVCIS,ioos:station:WAVCIS:CSI16:2,2011-01-01T05:45:00Z,29.4012,-89.0355,1.0,33.876,11111222 
WAVCIS,ioos:station:WAVCIS:CSI16:2,2011-01-01T06:00:00Z,29.4012,-89.0355,1.0,33.868,11111222 
WAVCIS,ioos:station:WAVCIS:CSI16:2,2011-01-01T06:15:00Z,29.4012,-89.0355,1.0,33.861,11111222 
WAVCIS,ioos:station:WAVCIS:CSI16:2,2011-01-01T06:30:00Z,29.4012,-89.0355,1.0,33.816,11111222 
WAVCIS,ioos:station:WAVCIS:CSI16:2,2011-01-01T06:45:00Z,29.4012,-89.0355,1.0,33.72,11111222 
WAVCIS,ioos:station:WAVCIS:CSI16:2,2011-01-01T07:00:00Z,29.4012,-89.0355,1.0,33.621,11111222 
WAVCIS,ioos:station:WAVCIS:CSI16:2,2011-01-01T07:15:00Z,29.4012,-89.0355,1.0,33.2,11111222 
WAVCIS,ioos:station:WAVCIS:CSI16:2,2011-01-01T07:30:00Z,29.4012,-89.0355,1.0,33.309,11111222 
WAVCIS,ioos:station:WAVCIS:CSI16:2,2011-01-01T07:45:00Z,29.4012,-89.0355,1.0,33.012,11111222 
WAVCIS,ioos:station:WAVCIS:CSI16:2,2011-01-01T08:00:00Z,29.4012,-89.0355,1.0,33.355,11111222 
WAVCIS,ioos:station:WAVCIS:CSI16:2,2011-01-01T08:15:00Z,29.4012,-89.0355,1.0,33.145,11111222 
WAVCIS,ioos:station:WAVCIS:CSI16:2,2011-01-01T08:30:00Z,29.4012,-89.0355,1.0,33.057,11111222 
WAVCIS,ioos:station:WAVCIS:CSI16:2,2011-01-01T08:45:00Z,29.4012,-89.0355,1.0,32.87,11111222 
WAVCIS,ioos:station:WAVCIS:CSI16:2,2011-01-01T09:00:00Z,29.4012,-89.0355,1.0,33.223,11111222 
WAVCIS,ioos:station:WAVCIS:CSI16:2,2011-01-01T09:15:00Z,29.4012,-89.0355,1.0,33.176,11111222 
WAVCIS,ioos:station:WAVCIS:CSI16:2,2011-01-01T09:30:00Z,29.4012,-89.0355,1.0,33.425,11111222 
WAVCIS,ioos:station:WAVCIS:CSI16:2,2011-01-01T09:45:00Z,29.4012,-89.0355,1.0,33.585,11111222 
WAVCIS,ioos:station:WAVCIS:CSI16:2,2011-01-01T10:00:00Z,29.4012,-89.0355,1.0,33.56,11111222 
WAVCIS,ioos:station:WAVCIS:CSI16:2,2011-01-01T10:15:00Z,29.4012,-89.0355,1.0,33.327,11111222 
WAVCIS,ioos:station:WAVCIS:CSI16:2,2011-01-01T10:30:00Z,29.4012,-89.0355,1.0,33.381,11111222 
WAVCIS,ioos:station:WAVCIS:CSI16:2,2011-01-01T10:45:00Z,29.4012,-89.0355,1.0,33.444,11111222 
WAVCIS,ioos:station:WAVCIS:CSI16:2,2011-01-01T11:00:00Z,29.4012,-89.0355,1.0,33.561,11111222 
WAVCIS,ioos:station:WAVCIS:CSI16:2,2011-01-01T11:15:00Z,29.4012,-89.0355,1.0,33.536,11111222 
WAVCIS,ioos:station:WAVCIS:CSI16:2,2011-01-01T11:30:00Z,29.4012,-89.0355,1.0,33.417,11111222 
WAVCIS,ioos:station:WAVCIS:CSI16:2,2011-01-01T11:45:00Z,29.4012,-89.0355,1.0,33.569,11111222 
WAVCIS,ioos:station:WAVCIS:CSI16:2,2011-01-01T12:00:00Z,29.4012,-89.0355,1.0,33.482,11111222 
WAVCIS,ioos:station:WAVCIS:CSI16:2,2011-01-01T12:15:00Z,29.4012,-89.0355,1.0,33.785,11111222 
WAVCIS,ioos:station:WAVCIS:CSI16:2,2011-01-01T12:30:00Z,29.4012,-89.0355,1.0,33.599,11111222 
WAVCIS,ioos:station:WAVCIS:CSI16:2,2011-01-01T12:45:00Z,29.4012,-89.0355,1.0,33.769,11111222 
WAVCIS,ioos:station:WAVCIS:CSI16:2,2011-01-01T13:00:00Z,29.4012,-89.0355,1.0,33.801,11111222 
WAVCIS,ioos:station:WAVCIS:CSI16:2,2011-01-01T13:15:00Z,29.4012,-89.0355,1.0,33.843,11111222 
WAVCIS,ioos:station:WAVCIS:CSI16:2,2011-01-01T13:30:00Z,29.4012,-89.0355,1.0,33.732,11111222 
WAVCIS,ioos:station:WAVCIS:CSI16:2,2011-01-01T13:45:00Z,29.4012,-89.0355,1.0,33.775,11111222 
WAVCIS,ioos:station:WAVCIS:CSI16:2,2011-01-01T14:00:00Z,29.4012,-89.0355,1.0,33.824,11111222 
WAVCIS,ioos:station:WAVCIS:CSI16:2,2011-01-01T14:15:00Z,29.4012,-89.0355,1.0,33.84,11111222 
WAVCIS,ioos:station:WAVCIS:CSI16:2,2011-01-01T14:30:00Z,29.4012,-89.0355,1.0,33.908,11111222 
WAVCIS,ioos:station:WAVCIS:CSI16:2,2011-01-01T14:45:00Z,29.4012,-89.0355,1.0,33.756,11111222 
WAVCIS,ioos:station:WAVCIS:CSI16:2,2011-01-01T15:00:00Z,29.4012,-89.0355,1.0,33.746,11111222 
WAVCIS,ioos:station:WAVCIS:CSI16:2,2011-01-01T15:15:00Z,29.4012,-89.0355,1.0,33.822,11111222 
WAVCIS,ioos:station:WAVCIS:CSI16:2,2011-01-01T15:30:00Z,29.4012,-89.0355,1.0,33.858,11111222 
WAVCIS,ioos:station:WAVCIS:CSI16:2,2011-01-01T15:45:00Z,29.4012,-89.0355,1.0,33.891,11111222 
WAVCIS,ioos:station:WAVCIS:CSI16:2,2011-01-01T16:00:00Z,29.4012,-89.0355,1.0,33.887,11111222 
WAVCIS,ioos:station:WAVCIS:CSI16:2,2011-01-01T16:15:00Z,29.4012,-89.0355,1.0,33.938,11111222 
WAVCIS,ioos:station:WAVCIS:CSI16:2,2011-01-01T16:30:00Z,29.4012,-89.0355,1.0,33.946,11111222 
WAVCIS,ioos:station:WAVCIS:CSI16:2,2011-01-01T16:45:00Z,29.4012,-89.0355,1.0,33.96,11111222 
WAVCIS,ioos:station:WAVCIS:CSI16:2,2011-01-01T17:00:00Z,29.4012,-89.0355,1.0,33.964,11111222 
WAVCIS,ioos:station:WAVCIS:CSI16:2,2011-01-01T17:15:00Z,29.4012,-89.0355,1.0,33.967,11111222 
WAVCIS,ioos:station:WAVCIS:CSI16:2,2011-01-01T17:30:00Z,29.4012,-89.0355,1.0,33.969,11111222 
WAVCIS,ioos:station:WAVCIS:CSI16:2,2011-01-01T17:45:00Z,29.4012,-89.0355,1.0,33.965,11111222 
WAVCIS,ioos:station:WAVCIS:CSI16:2,2011-01-01T18:00:00Z,29.4012,-89.0355,1.0,33.979,11111222 
WAVCIS,ioos:station:WAVCIS:CSI16:2,2011-01-01T18:15:00Z,29.4012,-89.0355,1.0,33.987,11111222 
WAVCIS,ioos:station:WAVCIS:CSI16:2,2011-01-01T18:30:00Z,29.4012,-89.0355,1.0,33.993,11111222 
WAVCIS,ioos:station:WAVCIS:CSI16:2,2011-01-01T18:45:00Z,29.4012,-89.0355,1.0,34.004,11111222 
WAVCIS,ioos:station:WAVCIS:CSI16:2,2011-01-01T19:00:00Z,29.4012,-89.0355,1.0,34.012,11111222 
WAVCIS,ioos:station:WAVCIS:CSI16:2,2011-01-01T19:15:00Z,29.4012,-89.0355,1.0,34.029,11111222 
WAVCIS,ioos:station:WAVCIS:CSI16:2,2011-01-01T19:30:00Z,29.4012,-89.0355,1.0,34.081,11111222 
WAVCIS,ioos:station:WAVCIS:CSI16:2,2011-01-01T19:45:00Z,29.4012,-89.0355,1.0,34.076,11111222 
WAVCIS,ioos:station:WAVCIS:CSI16:2,2011-01-01T20:00:00Z,29.4012,-89.0355,1.0,34.08,11111222 
WAVCIS,ioos:station:WAVCIS:CSI16:2,2011-01-01T20:15:00Z,29.4012,-89.0355,1.0,34.086,11111222 
WAVCIS,ioos:station:WAVCIS:CSI16:2,2011-01-01T20:30:00Z,29.4012,-89.0355,1.0,34.087,11111222 
WAVCIS,ioos:station:WAVCIS:CSI16:2,2011-01-01T20:45:00Z,29.4012,-89.0355,1.0,34.088,11111222 
WAVCIS,ioos:station:WAVCIS:CSI16:2,2011-01-01T21:00:00Z,29.4012,-89.0355,1.0,34.039,11111222 
WAVCIS,ioos:station:WAVCIS:CSI16:2,2011-01-01T21:15:00Z,29.4012,-89.0355,1.0,34.109,11111222 
WAVCIS,ioos:station:WAVCIS:CSI16:2,2011-01-01T21:30:00Z,29.4012,-89.0355,1.0,34.105,11111222 
WAVCIS,ioos:station:WAVCIS:CSI16:2,2011-01-01T21:45:00Z,29.4012,-89.0355,1.0,34.115,11111222 
WAVCIS,ioos:station:WAVCIS:CSI16:2,2011-01-01T22:00:00Z,29.4012,-89.0355,1.0,34.087,11111222 
WAVCIS,ioos:station:WAVCIS:CSI16:2,2011-01-01T22:15:00Z,29.4012,-89.0355,1.0,34.107,11111222 
WAVCIS,ioos:station:WAVCIS:CSI16:2,2011-01-01T22:30:00Z,29.4012,-89.0355,1.0,34.123,11111222 
WAVCIS,ioos:station:WAVCIS:CSI16:2,2011-01-01T22:45:00Z,29.4012,-89.0355,1.0,34.132,11111222 
WAVCIS,ioos:station:WAVCIS:CSI16:2,2011-01-01T23:00:00Z,29.4012,-89.0355,1.0,34.125,11111222 
WAVCIS,ioos:station:WAVCIS:CSI16:2,2011-01-01T23:15:00Z,29.4012,-89.0355,1.0,34.131,11111222 
WAVCIS,ioos:station:WAVCIS:CSI16:2,2011-01-01T23:30:00Z,29.4012,-89.0355,1.0,34.153,11111222 
WAVCIS,ioos:station:WAVCIS:CSI16:2,2011-01-01T23:45:00Z,29.4012,-89.0355,1.0,34.151,11111222 
WAVCIS,ioos:station:WAVCIS:CSI16:2,2011-01-02T00:00:00Z,29.4012,-89.0355,1.0,34.154,11111222 
WAVCIS,ioos:station:WAVCIS:CSI16:2,2011-01-02T00:15:00Z,29.4012,-89.0355,1.0,34.161,11111222 
WAVCIS,ioos:station:WAVCIS:CSI16:2,2011-01-02T00:30:00Z,29.4012,-89.0355,1.0,34.153,11111222 
WAVCIS,ioos:station:WAVCIS:CSI16:2,2011-01-02T00:45:00Z,29.4012,-89.0355,1.0,34.152,11111222 
WAVCIS,ioos:station:WAVCIS:CSI16:2,2011-01-02T01:00:00Z,29.4012,-89.0355,1.0,34.148,11111222 
WAVCIS,ioos:station:WAVCIS:CSI16:2,2011-01-02T01:15:00Z,29.4012,-89.0355,1.0,34.147,11111222 
WAVCIS,ioos:station:WAVCIS:CSI16:2,2011-01-02T01:30:00Z,29.4012,-89.0355,1.0,34.146,11111222 
WAVCIS,ioos:station:WAVCIS:CSI16:2,2011-01-02T01:45:00Z,29.4012,-89.0355,1.0,34.147,11111222 
WAVCIS,ioos:station:WAVCIS:CSI16:2,2011-01-02T02:00:00Z,29.4012,-89.0355,1.0,34.143,11111222 
WAVCIS,ioos:station:WAVCIS:CSI16:2,2011-01-02T02:15:00Z,29.4012,-89.0355,1.0,34.119,11111222 
WAVCIS,ioos:station:WAVCIS:CSI16:2,2011-01-02T02:30:00Z,29.4012,-89.0355,1.0,34.094,11111222 
WAVCIS,ioos:station:WAVCIS:CSI16:2,2011-01-02T02:45:00Z,29.4012,-89.0355,1.0,34.068,11111222 
WAVCIS,ioos:station:WAVCIS:CSI16:2,2011-01-02T03:00:00Z,29.4012,-89.0355,1.0,34.076,11111222 
WAVCIS,ioos:station:WAVCIS:CSI16:2,2011-01-02T03:15:00Z,29.4012,-89.0355,1.0,34.033,11111222 
WAVCIS,ioos:station:WAVCIS:CSI16:2,2011-01-02T03:30:00Z,29.4012,-89.0355,1.0,34.032,11111222 
WAVCIS,ioos:station:WAVCIS:CSI16:2,2011-01-02T03:45:00Z,29.4012,-89.0355,1.0,34.029,11111222 
WAVCIS,ioos:station:WAVCIS:CSI16:2,2011-01-02T04:00:00Z,29.4012,-89.0355,1.0,34.018,11111222 
WAVCIS,ioos:station:WAVCIS:CSI16:2,2011-01-02T04:15:00Z,29.4012,-89.0355,1.0,33.972,11111222 
WAVCIS,ioos:station:WAVCIS:CSI16:2,2011-01-02T04:30:00Z,29.4012,-89.0355,1.0,32.228,11111222 
WAVCIS,ioos:station:WAVCIS:CSI16:2,2011-01-02T04:45:00Z,29.4012,-89.0355,1.0,32.058,11111222 
WAVCIS,ioos:station:WAVCIS:CSI16:2,2011-01-02T05:00:00Z,29.4012,-89.0355,1.0,32.094,11111222 
WAVCIS,ioos:station:WAVCIS:CSI16:2,2011-01-02T05:15:00Z,29.4012,-89.0355,1.0,32.151,11111222 
WAVCIS,ioos:station:WAVCIS:CSI16:2,2011-01-02T05:30:00Z,29.4012,-89.0355,1.0,32.213,11111222 
WAVCIS,ioos:station:WAVCIS:CSI16:2,2011-01-02T05:45:00Z,29.4012,-89.0355,1.0,32.237,11111222 
WAVCIS,ioos:station:WAVCIS:CSI16:2,2011-01-02T06:00:00Z,29.4012,-89.0355,1.0,32.292,11111222 
WAVCIS,ioos:station:WAVCIS:CSI16:2,2011-01-02T06:15:00Z,29.4012,-89.0355,1.0,32.332,11111222 
WAVCIS,ioos:station:WAVCIS:CSI16:2,2011-01-02T06:30:00Z,29.4012,-89.0355,1.0,32.463,11111222 
WAVCIS,ioos:station:WAVCIS:CSI16:2,2011-01-02T06:45:00Z,29.4012,-89.0355,1.0,32.531,11111222 
WAVCIS,ioos:station:WAVCIS:CSI16:2,2011-01-02T07:00:00Z,29.4012,-89.0355,1.0,32.483,11111222 
WAVCIS,ioos:station:WAVCIS:CSI16:2,2011-01-02T07:15:00Z,29.4012,-89.0355,1.0,32.486,11111222 
WAVCIS,ioos:station:WAVCIS:CSI16:2,2011-01-02T07:30:00Z,29.4012,-89.0355,1.0,32.491,11111222 
WAVCIS,ioos:station:WAVCIS:CSI16:2,2011-01-02T07:45:00Z,29.4012,-89.0355,1.0,32.518,11111222 
WAVCIS,ioos:station:WAVCIS:CSI16:2,2011-01-02T08:00:00Z,29.4012,-89.0355,1.0,32.573,11111222 
WAVCIS,ioos:station:WAVCIS:CSI16:2,2011-01-02T08:15:00Z,29.4012,-89.0355,1.0,32.73,11111222 
WAVCIS,ioos:station:WAVCIS:CSI16:2,2011-01-02T08:30:00Z,29.4012,-89.0355,1.0,32.785,11111222 
WAVCIS,ioos:station:WAVCIS:CSI16:2,2011-01-02T08:45:00Z,29.4012,-89.0355,1.0,32.868,11111222 
WAVCIS,ioos:station:WAVCIS:CSI16:2,2011-01-02T09:00:00Z,29.4012,-89.0355,1.0,32.861,11111222 
WAVCIS,ioos:station:WAVCIS:CSI16:2,2011-01-02T09:15:00Z,29.4012,-89.0355,1.0,32.789,11111222 
WAVCIS,ioos:station:WAVCIS:CSI16:2,2011-01-02T09:30:00Z,29.4012,-89.0355,1.0,32.752,11111222 
WAVCIS,ioos:station:WAVCIS:CSI16:2,2011-01-02T09:45:00Z,29.4012,-89.0355,1.0,32.682,11111222 
WAVCIS,ioos:station:WAVCIS:CSI16:2,2011-01-02T10:00:00Z,29.4012,-89.0355,1.0,32.365,11111222 
WAVCIS,ioos:station:WAVCIS:CSI16:2,2011-01-02T10:15:00Z,29.4012,-89.0355,1.0,32.238,11111222 
WAVCIS,ioos:station:WAVCIS:CSI16:2,2011-01-02T10:30:00Z,29.4012,-89.0355,1.0,31.901,11111222 
WAVCIS,ioos:station:WAVCIS:CSI16:2,2011-01-02T10:45:00Z,29.4012,-89.0355,1.0,31.644,11111222 
WAVCIS,ioos:station:WAVCIS:CSI16:2,2011-01-02T11:00:00Z,29.4012,-89.0355,1.0,31.872,11111222 
WAVCIS,ioos:station:WAVCIS:CSI16:2,2011-01-02T11:15:00Z,29.4012,-89.0355,1.0,31.757,11111222 
WAVCIS,ioos:station:WAVCIS:CSI16:2,2011-01-02T11:30:00Z,29.4012,-89.0355,1.0,31.85,11111222 
WAVCIS,ioos:station:WAVCIS:CSI16:2,2011-01-02T11:45:00Z,29.4012,-89.0355,1.0,31.787,11111222 
WAVCIS,ioos:station:WAVCIS:CSI16:2,2011-01-02T12:00:00Z,29.4012,-89.0355,1.0,31.803,11111222 
WAVCIS,ioos:station:WAVCIS:CSI16:2,2011-01-02T12:15:00Z,29.4012,-89.0355,1.0,31.871,11111222 
WAVCIS,ioos:station:WAVCIS:CSI16:2,2011-01-02T12:30:00Z,29.4012,-89.0355,1.0,31.884,11111222 
WAVCIS,ioos:station:WAVCIS:CSI16:2,2011-01-02T12:45:00Z,29.4012,-89.0355,1.0,31.688,11111222 
WAVCIS,ioos:station:WAVCIS:CSI16:2,2011-01-02T13:00:00Z,29.4012,-89.0355,1.0,31.471,11111222 
WAVCIS,ioos:station:WAVCIS:CSI16:2,2011-01-02T13:15:00Z,29.4012,-89.0355,1.0,31.778,11111222 
WAVCIS,ioos:station:WAVCIS:CSI16:2,2011-01-02T13:30:00Z,29.4012,-89.0355,1.0,31.411,11111222 
WAVCIS,ioos:station:WAVCIS:CSI16:2,2011-01-02T13:45:00Z,29.4012,-89.0355,1.0,31.671,11111222 
WAVCIS,ioos:station:WAVCIS:CSI16:2,2011-01-02T14:00:00Z,29.4012,-89.0355,1.0,31.877,11111222 
WAVCIS,ioos:station:WAVCIS:CSI16:2,2011-01-02T14:15:00Z,29.4012,-89.0355,1.0,32.034,11111222 
WAVCIS,ioos:station:WAVCIS:CSI16:2,2011-01-02T14:30:00Z,29.4012,-89.0355,1.0,31.566,11111222 
WAVCIS,ioos:station:WAVCIS:CSI16:2,2011-01-02T14:45:00Z,29.4012,-89.0355,1.0,32.014,11111222 
WAVCIS,ioos:station:WAVCIS:CSI16:2,2011-01-02T15:00:00Z,29.4012,-89.0355,1.0,31.733,11111222 
WAVCIS,ioos:station:WAVCIS:CSI16:2,2011-01-02T15:15:00Z,29.4012,-89.0355,1.0,32.188,11111222 
WAVCIS,ioos:station:WAVCIS:CSI16:2,2011-01-02T15:30:00Z,29.4012,-89.0355,1.0,32.252,11111222 
WAVCIS,ioos:station:WAVCIS:CSI16:2,2011-01-02T15:45:00Z,29.4012,-89.0355,1.0,32.472,11111222 
WAVCIS,ioos:station:WAVCIS:CSI16:2,2011-01-02T16:00:00Z,29.4012,-89.0355,1.0,32.747,11111222 
WAVCIS,ioos:station:WAVCIS:CSI16:2,2011-01-02T16:15:00Z,29.4012,-89.0355,1.0,32.825,11111222 
WAVCIS,ioos:station:WAVCIS:CSI16:2,2011-01-02T16:30:00Z,29.4012,-89.0355,1.0,32.789,11111222 
WAVCIS,ioos:station:WAVCIS:CSI16:2,2011-01-02T16:45:00Z,29.4012,-89.0355,1.0,32.766,11111222 
WAVCIS,ioos:station:WAVCIS:CSI16:2,2011-01-02T17:00:00Z,29.4012,-89.0355,1.0,32.758,11111222 
WAVCIS,ioos:station:WAVCIS:CSI16:2,2011-01-02T17:15:00Z,29.4012,-89.0355,1.0,32.727,11111222 
WAVCIS,ioos:station:WAVCIS:CSI16:2,2011-01-02T17:30:00Z,29.4012,-89.0355,1.0,32.718,11111222 
WAVCIS,ioos:station:WAVCIS:CSI16:2,2011-01-02T17:45:00Z,29.4012,-89.0355,1.0,32.686,11111222 
WAVCIS,ioos:station:WAVCIS:CSI16:2,2011-01-02T18:00:00Z,29.4012,-89.0355,1.0,32.639,11111222 
WAVCIS,ioos:station:WAVCIS:CSI16:2,2011-01-02T18:15:00Z,29.4012,-89.0355,1.0,32.619,11111222 
WAVCIS,ioos:station:WAVCIS:CSI16:2,2011-01-02T18:30:00Z,29.4012,-89.0355,1.0,32.589,11111222 
WAVCIS,ioos:station:WAVCIS:CSI16:2,2011-01-02T18:45:00Z,29.4012,-89.0355,1.0,32.565,11111222 
WAVCIS,ioos:station:WAVCIS:CSI16:2,2011-01-02T19:00:00Z,29.4012,-89.0355,1.0,32.558,11111222 
WAVCIS,ioos:station:WAVCIS:CSI16:2,2011-01-02T19:15:00Z,29.4012,-89.0355,1.0,32.648,11111222 
WAVCIS,ioos:station:WAVCIS:CSI16:2,2011-01-02T19:30:00Z,29.4012,-89.0355,1.0,33.051,11111222 
WAVCIS,ioos:station:WAVCIS:CSI16:2,2011-01-02T19:45:00Z,29.4012,-89.0355,1.0,33.285,11111222 
WAVCIS,ioos:station:WAVCIS:CSI16:2,2011-01-02T20:00:00Z,29.4012,-89.0355,1.0,33.293,11111222 
WAVCIS,ioos:station:WAVCIS:CSI16:2,2011-01-02T20:15:00Z,29.4012,-89.0355,1.0,33.268,11111222 
WAVCIS,ioos:station:WAVCIS:CSI16:2,2011-01-02T20:30:00Z,29.4012,-89.0355,1.0,33.233,11111222 
WAVCIS,ioos:station:WAVCIS:CSI16:2,2011-01-02T20:45:00Z,29.4012,-89.0355,1.0,33.347,11111222 
WAVCIS,ioos:station:WAVCIS:CSI16:2,2011-01-02T21:00:00Z,29.4012,-89.0355,1.0,33.543,11111222 
WAVCIS,ioos:station:WAVCIS:CSI16:2,2011-01-02T21:15:00Z,29.4012,-89.0355,1.0,33.559,11111222 
WAVCIS,ioos:station:WAVCIS:CSI16:2,2011-01-02T21:30:00Z,29.4012,-89.0355,1.0,33.557,11111222 
WAVCIS,ioos:station:WAVCIS:CSI16:2,2011-01-02T21:45:00Z,29.4012,-89.0355,1.0,33.56,11111222 
WAVCIS,ioos:station:WAVCIS:CSI16:2,2011-01-02T22:00:00Z,29.4012,-89.0355,1.0,33.594,11111222 
WAVCIS,ioos:station:WAVCIS:CSI16:2,2011-01-02T22:15:00Z,29.4012,-89.0355,1.0,33.597,11111222 
WAVCIS,ioos:station:WAVCIS:CSI16:2,2011-01-02T22:30:00Z,29.4012,-89.0355,1.0,33.595,11111222 
WAVCIS,ioos:station:WAVCIS:CSI16:2,2011-01-02T22:45:00Z,29.4012,-89.0355,1.0,33.588,11111222 
WAVCIS,ioos:station:WAVCIS:CSI16:2,2011-01-02T23:00:00Z,29.4012,-89.0355,1.0,33.583,11111222 
WAVCIS,ioos:station:WAVCIS:CSI16:2,2011-01-02T23:15:00Z,29.4012,-89.0355,1.0,33.591,11111222 
WAVCIS,ioos:station:WAVCIS:CSI16:2,2011-01-02T23:30:00Z,29.4012,-89.0355,1.0,33.585,11111222 
WAVCIS,ioos:station:WAVCIS:CSI16:2,2011-01-02T23:45:00Z,29.4012,-89.0355,1.0,33.6,11111222 
WAVCIS,ioos:station:WAVCIS:CSI16:2,2011-01-03T00:00:00Z,29.4012,-89.0355,1.0,33.607,11111222 
WAVCIS,ioos:station:WAVCIS:CSI16:2,2011-01-03T00:15:00Z,29.4012,-89.0355,1.0,33.645,11111222 
WAVCIS,ioos:station:WAVCIS:CSI16:2,2011-01-03T00:30:00Z,29.4012,-89.0355,1.0,33.679,11111222 
WAVCIS,ioos:station:WAVCIS:CSI16:2,2011-01-03T00:45:00Z,29.4012,-89.0355,1.0,33.703,11111222 
WAVCIS,ioos:station:WAVCIS:CSI16:2,2011-01-03T01:00:00Z,29.4012,-89.0355,1.0,33.697,11111222 
WAVCIS,ioos:station:WAVCIS:CSI16:2,2011-01-03T01:15:00Z,29.4012,-89.0355,1.0,33.709,11111222 
WAVCIS,ioos:station:WAVCIS:CSI16:2,2011-01-03T01:30:00Z,29.4012,-89.0355,1.0,33.742,11111222 
WAVCIS,ioos:station:WAVCIS:CSI16:2,2011-01-03T01:45:00Z,29.4012,-89.0355,1.0,33.769,11111222 
WAVCIS,ioos:station:WAVCIS:CSI16:2,2011-01-03T02:00:00Z,29.4012,-89.0355,1.0,33.784,11111222 
WAVCIS,ioos:station:WAVCIS:CSI16:2,2011-01-03T02:15:00Z,29.4012,-89.0355,1.0,33.794,11111222 
WAVCIS,ioos:station:WAVCIS:CSI16:2,2011-01-03T02:30:00Z,29.4012,-89.0355,1.0,33.8,11111222 
WAVCIS,ioos:station:WAVCIS:CSI16:2,2011-01-03T02:45:00Z,29.4012,-89.0355,1.0,33.816,11111222 
WAVCIS,ioos:station:WAVCIS:CSI16:2,2011-01-03T03:00:00Z,29.4012,-89.0355,1.0,33.84,11111222 
WAVCIS,ioos:station:WAVCIS:CSI16:2,2011-01-03T03:15:00Z,29.4012,-89.0355,1.0,33.866,11111222 
WAVCIS,ioos:station:WAVCIS:CSI16:2,2011-01-03T03:30:00Z,29.4012,-89.0355,1.0,33.884,11111222 
WAVCIS,ioos:station:WAVCIS:CSI16:2,2011-01-03T03:45:00Z,29.4012,-89.0355,1.0,33.902,11111222 
WAVCIS,ioos:station:WAVCIS:CSI16:2,2011-01-03T04:00:00Z,29.4012,-89.0355,1.0,33.92,11111222 
WAVCIS,ioos:station:WAVCIS:CSI16:2,2011-01-03T04:15:00Z,29.4012,-89.0355,1.0,33.895,11111222 
WAVCIS,ioos:station:WAVCIS:CSI16:2,2011-01-03T04:30:00Z,29.4012,-89.0355,1.0,33.923,11111222 
WAVCIS,ioos:station:WAVCIS:CSI16:2,2011-01-03T04:45:00Z,29.4012,-89.0355,1.0,33.939,11111222 
WAVCIS,ioos:station:WAVCIS:CSI16:2,2011-01-03T05:00:00Z,29.4012,-89.0355,1.0,33.975,11111222 
WAVCIS,ioos:station:WAVCIS:CSI16:2,2011-01-03T05:15:00Z,29.4012,-89.0355,1.0,33.987,11111222 
WAVCIS,ioos:station:WAVCIS:CSI16:2,2011-01-03T05:30:00Z,29.4012,-89.0355,1.0,33.986,11111222 
WAVCIS,ioos:station:WAVCIS:CSI16:2,2011-01-03T05:45:00Z,29.4012,-89.0355,1.0,34.019,11111222 
WAVCIS,ioos:station:WAVCIS:CSI16:2,2011-01-03T06:00:00Z,29.4012,-89.0355,1.0,34.041,11111222 
WAVCIS,ioos:station:WAVCIS:CSI16:2,2011-01-03T06:15:00Z,29.4012,-89.0355,1.0,34.075,11111222 
WAVCIS,ioos:station:WAVCIS:CSI16:2,2011-01-03T06:30:00Z,29.4012,-89.0355,1.0,34.063,11111222 
WAVCIS,ioos:station:WAVCIS:CSI16:2,2011-01-03T06:45:00Z,29.4012,-89.0355,1.0,34.092,11111222 
WAVCIS,ioos:station:WAVCIS:CSI16:2,2011-01-03T07:00:00Z,29.4012,-89.0355,1.0,34.124,11111222 
WAVCIS,ioos:station:WAVCIS:CSI16:2,2011-01-03T07:15:00Z,29.4012,-89.0355,1.0,34.13,11111222 
WAVCIS,ioos:station:WAVCIS:CSI16:2,2011-01-03T07:30:00Z,29.4012,-89.0355,1.0,34.145,11111222 
WAVCIS,ioos:station:WAVCIS:CSI16:2,2011-01-03T07:45:00Z,29.4012,-89.0355,1.0,34.158,11111222 
WAVCIS,ioos:station:WAVCIS:CSI16:2,2011-01-03T08:00:00Z,29.4012,-89.0355,1.0,34.178,11111222 
WAVCIS,ioos:station:WAVCIS:CSI16:2,2011-01-03T08:15:00Z,29.4012,-89.0355,1.0,34.177,11111222 
WAVCIS,ioos:station:WAVCIS:CSI16:2,2011-01-03T08:30:00Z,29.4012,-89.0355,1.0,34.178,11111222 
WAVCIS,ioos:station:WAVCIS:CSI16:2,2011-01-03T08:45:00Z,29.4012,-89.0355,1.0,34.183,11111222 
WAVCIS,ioos:station:WAVCIS:CSI16:2,2011-01-03T09:00:00Z,29.4012,-89.0355,1.0,34.194,11111222 
WAVCIS,ioos:station:WAVCIS:CSI16:2,2011-01-03T09:15:00Z,29.4012,-89.0355,1.0,34.197,11111222 
WAVCIS,ioos:station:WAVCIS:CSI16:2,2011-01-03T09:30:00Z,29.4012,-89.0355,1.0,34.195,11111222 
WAVCIS,ioos:station:WAVCIS:CSI16:2,2011-01-03T09:45:00Z,29.4012,-89.0355,1.0,34.191,11111222 
WAVCIS,ioos:station:WAVCIS:CSI16:2,2011-01-03T10:00:00Z,29.4012,-89.0355,1.0,33.857,11111222 
WAVCIS,ioos:station:WAVCIS:CSI16:2,2011-01-03T10:15:00Z,29.4012,-89.0355,1.0,33.904,11111222 
WAVCIS,ioos:station:WAVCIS:CSI16:2,2011-01-03T10:30:00Z,29.4012,-89.0355,1.0,33.613,11111222 
WAVCIS,ioos:station:WAVCIS:CSI16:2,2011-01-03T10:45:00Z,29.4012,-89.0355,1.0,33.753,11111222 
WAVCIS,ioos:station:WAVCIS:CSI16:2,2011-01-03T11:00:00Z,29.4012,-89.0355,1.0,33.663,11111222 
WAVCIS,ioos:station:WAVCIS:CSI16:2,2011-01-03T11:15:00Z,29.4012,-89.0355,1.0,33.534,11111222 
WAVCIS,ioos:station:WAVCIS:CSI16:2,2011-01-03T11:30:00Z,29.4012,-89.0355,1.0,33.429,11111222 
WAVCIS,ioos:station:WAVCIS:CSI16:2,2011-01-03T11:45:00Z,29.4012,-89.0355,1.0,33.289,11111222 
WAVCIS,ioos:station:WAVCIS:CSI16:2,2011-01-03T12:00:00Z,29.4012,-89.0355,1.0,33.167,11111222 
WAVCIS,ioos:station:WAVCIS:CSI16:2,2011-01-03T12:15:00Z,29.4012,-89.0355,1.0,32.971,11111222 
WAVCIS,ioos:station:WAVCIS:CSI16:2,2011-01-03T12:30:00Z,29.4012,-89.0355,1.0,33.151,11111222 
WAVCIS,ioos:station:WAVCIS:CSI16:2,2011-01-03T12:45:00Z,29.4012,-89.0355,1.0,33.378,11111222 
WAVCIS,ioos:station:WAVCIS:CSI16:2,2011-01-03T13:00:00Z,29.4012,-89.0355,1.0,33.471,11111222 
WAVCIS,ioos:station:WAVCIS:CSI16:2,2011-01-03T13:15:00Z,29.4012,-89.0355,1.0,33.525,11111222 
WAVCIS,ioos:station:WAVCIS:CSI16:2,2011-01-03T13:30:00Z,29.4012,-89.0355,1.0,33.743,11111222 
WAVCIS,ioos:station:WAVCIS:CSI16:2,2011-01-03T13:45:00Z,29.4012,-89.0355,1.0,33.776,11111222 
WAVCIS,ioos:station:WAVCIS:CSI16:2,2011-01-03T14:00:00Z,29.4012,-89.0355,1.0,33.756,11111222 
WAVCIS,ioos:station:WAVCIS:CSI16:2,2011-01-03T14:15:00Z,29.4012,-89.0355,1.0,33.75,11111222 
WAVCIS,ioos:station:WAVCIS:CSI16:2,2011-01-03T14:30:00Z,29.4012,-89.0355,1.0,33.671,11111222 
WAVCIS,ioos:station:WAVCIS:CSI16:2,2011-01-03T14:45:00Z,29.4012,-89.0355,1.0,33.632,11111222 
WAVCIS,ioos:station:WAVCIS:CSI16:2,2011-01-03T15:00:00Z,29.4012,-89.0355,1.0,33.537,11111222 
WAVCIS,ioos:station:WAVCIS:CSI16:2,2011-01-03T15:15:00Z,29.4012,-89.0355,1.0,33.674,11111222 